Weather History for Grove, OK

Change the Weather History Date:

Tuesday, October 2, 2012

  Actual Average (KSLG) Record (KSLG)
Temperature  
Mean Temperature 64 °F -  
Max Temperature 75 °F 72 °F 89 °F (2006)
Min Temperature 53 °F 50 °F 37 °F (2003)
Degree Days  
Heating Degree Days 1    
Growing Degree Days 14 (Base 50)    
Moisture  
Dew Point 50 °F    
Average Humidity 65    
Maximum Humidity 100    
Minimum Humidity 36    
Precipitation  
Precipitation 0.00 in - - ()
Sea Level Pressure  
Sea Level Pressure 29.92 in    
Wind  
Wind Speed 3 mph (NNW)    
Max Wind Speed 9 mph    
Max Gust Speed 22 mph    
Visibility 10 miles    
Events      
Averages and records for this station are not official NWS values.
T = Trace of Precipitation, MM = Missing Value Source: NWS Daily Summary

Daily Weather History Graph

Daily Weather History Graph

Search for Another Location

Airport:

Trip Planner

Search our weather history database for the weather conditions in past years. The results will help you decide how hot, cold, wet, or windy it might be!

Date:

Astronomy

Oct. 02, 2012 Rise Set
Actual Time 7:15 AM CDT 7:00 PM CDT
Civil Twilight 6:49 AM CDT 7:25 PM CDT
Nautical Twilight 6:19 AM CDT 7:55 PM CDT
Astronomical Twilight 5:49 AM CDT 8:25 PM CDT
Moon 8:19 PM CDT (10/2) 9:38 AM CDT (10/2)
Length of Visible Light 12h 36m
Length of Day
11h 44m
Waning Gibbous, 94% of the Moon is Illuminated
Oct 2
Waning Gibbous
Oct 8
Last Quarter
Oct 15
New
Oct 21
First Quarter
Oct 29
Full

Hourly Weather History & Observations

Time (CDT) Temp. Dew Point Humidity Pressure Visibility Wind Dir Wind Speed Gust Speed Precip Events Conditions
12:35 AM 62.6 °F 53.6 °F 72% 29.86 in 10.0 mi North 3.5 mph - N/A   Clear
12:55 AM 64.4 °F 53.6 °F 68% 29.86 in 10.0 mi North 3.5 mph - N/A   Clear
1:15 AM 60.8 °F 53.6 °F 77% 29.86 in 10.0 mi NNW 4.6 mph - N/A   Clear
1:35 AM 60.8 °F 53.6 °F 77% 29.87 in 10.0 mi NNW 5.8 mph - N/A   Clear
1:55 AM 60.8 °F 55.4 °F 82% 29.88 in 10.0 mi North 5.8 mph - N/A   Clear
2:15 AM 60.8 °F 55.4 °F 82% 29.88 in 10.0 mi North 3.5 mph - N/A   Clear
2:55 AM 60.8 °F 55.4 °F 82% 29.88 in 10.0 mi NNW 3.5 mph - N/A   Clear
3:15 AM 60.8 °F 55.4 °F 82% 29.88 in 10.0 mi North 4.6 mph - N/A   Clear
3:35 AM 60.8 °F 53.6 °F 77% 29.88 in 10.0 mi NNW 4.6 mph - N/A   Clear
3:55 AM 60.8 °F 53.6 °F 77% 29.89 in 10.0 mi NNW 4.6 mph - N/A   Clear
4:15 AM 60.8 °F 53.6 °F 77% 29.89 in 10.0 mi NNW 4.6 mph - N/A   Clear
4:55 AM 59.0 °F 51.8 °F 77% 29.90 in 10.0 mi Calm Calm - N/A   Clear
5:15 AM 59.0 °F 50.0 °F 72% 29.91 in 10.0 mi Calm Calm - N/A   Clear
5:35 AM 59.0 °F 50.0 °F 72% 29.91 in 10.0 mi Calm Calm - N/A   Clear
5:55 AM 59.0 °F 50.0 °F 72% 29.92 in 10.0 mi Calm Calm - N/A   Clear
6:15 AM 57.2 °F 50.0 °F 77% 29.92 in 10.0 mi Calm Calm - N/A   Clear
6:35 AM 55.4 °F 50.0 °F 82% 29.93 in 10.0 mi Calm Calm - N/A   Clear
6:55 AM 55.4 °F 50.0 °F 82% 29.93 in 10.0 mi Calm Calm - N/A   Clear
7:15 AM 55.4 °F 50.0 °F 82% 29.93 in 10.0 mi Calm Calm - N/A   Clear
7:35 AM 53.6 °F 50.0 °F 88% 29.94 in 10.0 mi Calm Calm - N/A   Clear
8:15 AM 55.4 °F 50.0 °F 82% 29.95 in 10.0 mi Calm Calm - N/A   Clear
8:35 AM 59.0 °F 50.0 °F 72% 29.95 in 10.0 mi NNW 5.8 mph - N/A   Clear
8:55 AM 59.0 °F 48.2 °F 67% 29.96 in 10.0 mi North 3.5 mph - N/A   Clear
9:15 AM 59.0 °F 48.2 °F 67% 29.96 in 10.0 mi Calm Calm - N/A   Clear
9:35 AM 60.8 °F 48.2 °F 63% 29.96 in 10.0 mi Calm Calm - N/A   Clear
9:55 AM 60.8 °F 48.2 °F 63% 29.96 in 10.0 mi North 4.6 mph - N/A   Clear
10:15 AM 62.6 °F 48.2 °F 59% 29.96 in 10.0 mi NW 3.5 mph - N/A   Clear
10:35 AM 64.4 °F 50.0 °F 59% 29.96 in 10.0 mi North 3.5 mph - N/A   Clear
10:55 AM 64.4 °F 50.0 °F 59% 29.96 in 10.0 mi Calm Calm - N/A   Clear
11:15 AM 64.4 °F 50.0 °F 59% 29.97 in 10.0 mi Calm Calm - N/A   Clear
11:35 AM 66.2 °F 50.0 °F 56% 29.97 in 10.0 mi North 3.5 mph - N/A   Clear
11:55 AM 68.0 °F 51.8 °F 56% 29.96 in 10.0 mi WNW 4.6 mph - N/A   Clear
12:15 PM 69.8 °F 51.8 °F 53% 29.96 in 10.0 mi NW 6.9 mph - N/A   Clear
12:35 PM 69.8 °F 51.8 °F 53% 29.96 in 10.0 mi WNW 4.6 mph - N/A   Clear
12:55 PM 69.8 °F 51.8 °F 53% 29.95 in 10.0 mi WNW 5.8 mph - N/A   Clear
1:15 PM 71.6 °F 50.0 °F 46% 29.94 in 10.0 mi NNW 3.5 mph - N/A   Clear
1:35 PM 71.6 °F 48.2 °F 43% 29.93 in 10.0 mi NNW 6.9 mph - N/A   Clear
2:15 PM 73.4 °F 46.4 °F 38% 29.92 in 10.0 mi NNW 6.9 mph - N/A   Clear
2:35 PM 73.4 °F 46.4 °F 38% 29.91 in 10.0 mi NW 5.8 mph - N/A   Clear
2:55 PM 73.4 °F 46.4 °F 38% 29.91 in 10.0 mi NNW 8.1 mph 21.9 mph N/A   Clear
3:15 PM 73.4 °F 46.4 °F 38% 29.91 in 10.0 mi NW 9.2 mph - N/A   Clear
3:35 PM 75.2 °F 46.4 °F 36% 29.91 in 10.0 mi NW 6.9 mph - N/A   Clear
3:55 PM 73.4 °F 46.4 °F 38% 29.91 in 10.0 mi NW 8.1 mph - N/A   Clear
4:15 PM 75.2 °F 46.4 °F 36% 29.91 in 10.0 mi NNW 9.2 mph - N/A   Clear
4:35 PM 73.4 °F 46.4 °F 38% 29.90 in 10.0 mi NNW 9.2 mph - N/A   Clear
4:55 PM 73.4 °F 46.4 °F 38% 29.90 in 10.0 mi WNW 6.9 mph - N/A   Clear
5:15 PM 73.4 °F 46.4 °F 38% 29.90 in 10.0 mi NW 5.8 mph - N/A   Clear
5:35 PM 73.4 °F 46.4 °F 38% 29.90 in 10.0 mi WNW 4.6 mph - N/A   Clear
5:55 PM 73.4 °F 46.4 °F 38% 29.90 in 10.0 mi NW 5.8 mph - N/A   Clear
6:15 PM 71.6 °F 46.4 °F 41% 29.90 in 10.0 mi NW 3.5 mph - N/A   Clear
6:35 PM 69.8 °F 46.4 °F 43% 29.91 in 10.0 mi Calm Calm - N/A   Clear
6:55 PM 69.8 °F 48.2 °F 46% 29.91 in 10.0 mi Calm Calm - N/A   Clear
7:15 PM 66.2 °F 50.0 °F 56% 29.91 in 10.0 mi Calm Calm - N/A   Clear
7:35 PM 64.4 °F 50.0 °F 59% 29.91 in 10.0 mi Calm Calm - N/A   Clear
7:55 PM 62.6 °F 51.8 °F 68% 29.92 in 10.0 mi Calm Calm - N/A   Clear
8:15 PM 60.8 °F 51.8 °F 72% 29.92 in 10.0 mi Calm Calm - N/A   Clear
8:35 PM 60.8 °F 51.8 °F 72% 29.92 in 10.0 mi Calm Calm - N/A   Clear
9:15 PM 57.2 °F 51.8 °F 82% 29.93 in 10.0 mi Calm Calm - N/A   Clear
9:35 PM 57.2 °F 51.8 °F 82% 29.93 in 10.0 mi Calm Calm - N/A   Clear
9:55 PM 55.4 °F 51.8 °F 88% 29.94 in 10.0 mi Calm Calm - N/A   Clear
10:15 PM 55.4 °F 51.8 °F 88% 29.94 in 10.0 mi Calm Calm - N/A   Clear
10:35 PM 53.6 °F 51.8 °F 94% 29.94 in 10.0 mi Calm Calm - N/A   Clear
10:55 PM 53.6 °F 51.8 °F 94% 29.94 in 10.0 mi Calm Calm - N/A   Clear
11:15 PM 53.6 °F 53.6 °F 100% 29.95 in 10.0 mi Calm Calm - N/A   Clear
11:35 PM 53.6 °F 53.6 °F 100% 29.95 in 10.0 mi Calm Calm - N/A   Clear
11:55 PM 53.6 °F 53.6 °F 100% 29.95 in 10.0 mi Calm Calm - N/A   Clear